Location: Newark
(41.8083°N, 72.2500°W)
Time: 11:54:37
(UTC+00:00)

Explorer 11/Cluster Stage 4 - Pass Details

Date: 11 December 2021
Orbit: 467 x 1255 km, 28.8° (Epoch: 24 January)

Event Time Altitude Azimuth Distance (km) Brightness Sun altitude
Rises 05:20:12 0° 238° (WSW) 2,833 - -69.6°
Reaches altitude 10° 05:22:54 10° 219° (SW) 2,054 - -69.4°
Maximum altitude 05:26:18 19° 174° (S) 1,681 - -69.1°
Drops below altitude 10° 05:30:13 10° 131° (SE) 2,416 - -68.7°
Sets 05:33:43 0° 115° (ESE) 3,528 - -68.3°
